Weather History for KJAN - August, 2013

Change the Weather History Date:

Monday, August 26, 2013

  Actual Average Record
Temperature  
Mean Temperature 79 °F 81 °F  
Max Temperature 90 °F 91 °F 104 °F (1902)
Min Temperature 67 °F 70 °F 55 °F (1966)
Degree Days  
Heating Degree Days 0 0  
Month to date heating degree days 0 0  
Since 1 June heating degree days 0 0  
Since 1 July heating degree days 0 0  
Cooling Degree Days 14 16  
Month to date cooling degree days 452 431  
Year to date cooling degree days 1693 1726  
Since 1 June cooling degree days 1375 1368  
Growing Degree Days 30 (Base 50)    
Moisture  
Dew Point 65 °F    
Average Humidity 68    
Maximum Humidity 93    
Minimum Humidity 43    
Precipitation  
Precipitation 0.00 in 0.11 in 4.04 in (1992)
Month to date precipitation 3.05 3.69  
Year to date precipitation 43.75 36.73  
Sea Level Pressure  
Sea Level Pressure 30.17 in    
Wind  
Wind Speed 5 mph (East)    
Max Wind Speed 13 mph    
Max Gust Speed 18 mph    
Visibility 10 miles    
Events      
T = Trace of Precipitation, MM = Missing Value Source: NWS Daily Summary

Daily Weather History Graph

Daily Weather History Graph

Search for Another Location

Airport or City:

Trip Planner

Search our weather history database for the weather conditions in past years. The results will help you decide how hot, cold, wet, or windy it might be!

Date:

Astronomy

Aug. 26, 2013 Rise Set
Actual Time 6:31 AM CDT 7:31 PM CDT
Civil Twilight 6:06 AM CDT 7:56 PM CDT
Nautical Twilight 5:36 AM CDT 8:26 PM CDT
Astronomical Twilight 5:05 AM CDT 8:57 PM CDT
Moon 11:06 PM CDT (8/26) 12:09 PM CDT (8/26)
Length of Visible Light 13h 50m
Length of Day
13h 00m
Waning Gibbous, 66% of the Moon is Illuminated
Aug 26
Waning Gibbous
Aug 28
Last Quarter
Sep 5
New
Sep 12
First Quarter
Sep 19
Full

Hourly Weather History & Observations

Time (CDT) Temp. Heat Index Dew Point Humidity Pressure Visibility Wind Dir Wind Speed Gust Speed Precip Events Conditions
12:54 AM 75.0 °F - 69.1 °F 82% 30.18 in 10.0 mi ENE 4.6 mph - 0.00 in   Overcast
1:54 AM 73.9 °F - 70.0 °F 87% 30.17 in 10.0 mi East 3.5 mph - N/A   Partly Cloudy
2:54 AM 73.9 °F - 70.0 °F 87% 30.17 in 10.0 mi East 4.6 mph - N/A   Partly Cloudy
3:54 AM 73.0 °F - 70.0 °F 90% 30.18 in 10.0 mi ENE 3.5 mph - N/A   Clear
4:54 AM 73.0 °F - 70.0 °F 90% 30.18 in 9.0 mi East 5.8 mph - N/A   Clear
5:54 AM 72.0 °F - 69.1 °F 91% 30.19 in 9.0 mi Calm Calm - N/A   Clear
6:54 AM 71.1 °F - 68.0 °F 90% 30.19 in 8.0 mi Calm Calm - N/A   Clear
7:54 AM 75.0 °F - 66.0 °F 73% 30.21 in 10.0 mi ESE 6.9 mph - N/A   Clear
8:54 AM 78.1 °F - 64.0 °F 62% 30.21 in 10.0 mi ESE 5.8 mph - N/A   Clear
9:54 AM 81.0 °F 82.5 °F 64.0 °F 56% 30.22 in 10.0 mi ESE 8.1 mph - N/A   Clear
10:54 AM 82.9 °F 84.6 °F 64.9 °F 54% 30.23 in 10.0 mi SE 9.2 mph - N/A   Clear
11:54 AM 84.9 °F 86.6 °F 64.9 °F 51% 30.22 in 10.0 mi East 9.2 mph - N/A   Partly Cloudy
12:54 PM 87.1 °F 88.9 °F 64.9 °F 48% 30.21 in 10.0 mi Variable 3.5 mph - N/A   Partly Cloudy
1:54 PM 87.1 °F 88.9 °F 64.9 °F 48% 30.19 in 10.0 mi East 9.2 mph - N/A   Scattered Clouds
2:54 PM 89.1 °F 90.3 °F 64.0 °F 43% 30.15 in 10.0 mi East 10.4 mph - N/A   Scattered Clouds
3:54 PM 88.0 °F 89.3 °F 64.0 °F 45% 30.14 in 10.0 mi NE 9.2 mph - N/A   Mostly Cloudy
4:54 PM 87.1 °F 87.5 °F 62.1 °F 43% 30.13 in 10.0 mi NE 8.1 mph - N/A   Scattered Clouds
5:54 PM 87.1 °F 87.5 °F 62.1 °F 43% 30.12 in 10.0 mi East 6.9 mph - N/A   Partly Cloudy
6:54 PM 84.0 °F 84.5 °F 62.1 °F 47% 30.12 in 10.0 mi East 6.9 mph - N/A   Clear
7:54 PM 78.1 °F - 64.0 °F 62% 30.12 in 10.0 mi East 5.8 mph - N/A   Clear
8:54 PM 75.0 °F - 64.0 °F 69% 30.13 in 10.0 mi East 3.5 mph - N/A   Clear
9:54 PM 73.9 °F - 63.0 °F 68% 30.14 in 10.0 mi East 3.5 mph - N/A   Clear
10:54 PM 73.0 °F - 62.1 °F 68% 30.15 in 10.0 mi East 5.8 mph - N/A   Clear
11:54 PM 70.0 °F - 62.1 °F 76% 30.14 in 10.0 mi Calm Calm - N/A   Clear